"Time","Temp","Dewpoint","Humidity","Pressure","Direction","Speed","Gust","Precip","PrecipRate"
"00:04:58","44.8","31.5","59.5","30.19","328","3.3","7","0.00","0.00"
"00:09:59","44.5","31.5","60","30.19","324","4.9","10.4","0.00","0.00"
"00:14:59","44.3","31.3","60.1","30.19","325","5.8","20","0.00","0.00"
"00:19:59","44.4","30.6","58.1","30.19","321","7.6","19.6","0.00","0.00"
"00:24:58","44.4","30","56.8","30.19","331","5.7","14","0.00","0.00"
"00:29:56","44.3","29.2","55.4","30.20","312","5.5","17","0.00","0.00"
"00:34:58","44.1","28.8","54.8","30.20","313","4.8","13","0.00","0.00"
"00:39:59","44","28.2","53.4","30.20","322","8","22","0.00","0.00"
"00:44:58","43.9","28","53.3","30.20","344","4.8","12","0.00","0.00"
"00:49:58","43.7","27.5","52.4","30.20","308","6","11.5","0.00","0.00"
"00:54:56","43.6","27.6","52.9","30.20","334","5.1","14","0.00","0.00"
"00:59:58","43.4","27.5","53.2","30.20","333","4.6","11","0.00","0.00"
"01:04:56","43.2","27.3","53.1","30.20","337","4","12","0.00","0.00"
"01:09:56","43.2","27.2","52.9","30.20","327","2.9","11.5","0.00","0.00"
"01:14:56","43","27.1","53.1","30.20","321","1.3","3.5","0.00","0.00"
"01:19:59","42.8","27","53.5","30.19","333","3","10.4","0.00","0.00"
"01:24:59","42.6","27.1","54","30.19","301","2.2","11.5","0.00","0.00"
"01:29:57","42.4","27.2","54.5","30.19","311","2.8","5","0.00","0.00"
"01:34:56","42.4","27","54.2","30.19","320","3.8","10.4","0.00","0.00"
"01:39:56","42.5","27.2","54.5","30.19","323","2.7","6","0.00","0.00"
"01:44:58","42.4","27.3","54.7","30.20","336","2.3","8.1","0.00","0.00"
"01:49:56","42.3","27.4","55.1","30.20","331","2.3","4","0.00","0.00"
"01:54:57","42.2","27.5","55.6","30.20","353","1.5","4","0.00","0.00"
"01:59:59","42","27.1","55.2","30.20","341","1.7","4","0.00","0.00"
"02:04:56","41.9","27.2","55.9","30.20","342","1.6","3.5","0.00","0.00"
"02:09:57","41.7","27.4","56.5","30.20","338","1.5","4","0.00","0.00"
"02:14:59","41.6","27.4","56.8","30.21","336","0.4","2.3","0.00","0.00"
"02:19:57","41.5","27.5","57.4","30.21","336","0","1.2","0.00","0.00"
"02:24:56","41.3","27.2","57","30.21","336","0.4","2.3","0.00","0.00"
"02:29:58","41.1","27.4","57.9","30.21","336","0.2","2.3","0.00","0.00"
"02:34:59","40.9","27.4","58.4","30.21","336","0.3","2.3","0.00","0.00"
"02:39:59","40.7","27.8","59.9","30.21","194","1","3","0.00","0.00"
"02:44:58","40.7","28.1","60.7","30.22","194","0.5","3.5","0.00","0.00"
"02:49:57","40.6","28.3","61.2","30.22","194","0.5","2.3","0.00","0.00"
"02:54:56","40.7","28.1","60.3","30.22","203","1.1","3","0.00","0.00"
"02:59:58","40.9","28.3","60.3","30.22","243","1.4","4","0.00","0.00"
"03:04:58","41.2","28.4","60.2","30.22","303","2.7","6","0.00","0.00"
"03:09:58","41.4","28.5","60","30.22","264","1.6","4","0.00","0.00"
"03:14:57","41.6","28.6","59.6","30.22","303","2.6","9.2","0.00","0.00"
"03:19:56","41.7","28.3","58.7","30.22","330","2.1","5","0.00","0.00"
"03:24:58","41.8","28.2","58.2","30.22","331","1","4","0.00","0.00"
"03:29:57","41.8","28","57.6","30.23","300","2.3","6","0.00","0.00"
"03:34:59","41.9","27.8","57.2","30.23","294","2.2","7","0.00","0.00"
"03:39:57","41.8","27.8","57.1","30.23","299","2.7","6","0.00","0.00"
"03:44:59","41.8","28","57.9","30.23","294","2.6","7","0.00","0.00"
"03:49:58","41.7","27.9","57.8","30.23","284","2.9","6","0.00","0.00"
"03:54:57","41.6","27.9","57.8","30.23","321","3","6","0.00","0.00"
"03:59:57","41.6","27.6","57.3","30.23","333","4.6","13","0.00","0.00"
"04:04:57","41.7","27.6","57","30.23","312","3.9","11","0.00","0.00"
"04:09:57","41.6","27.5","57","30.23","313","3.9","9.2","0.00","0.00"
"04:14:59","41.6","27.6","57.3","30.24","325","3.4","5.8","0.00","0.00"
"04:19:59","41.4","27.3","57","30.24","324","4","9.2","0.00","0.00"
"04:24:59","41.3","27.2","57","30.24","314","3.7","7","0.00","0.00"
"04:29:56","41.2","27.1","57","30.25","317","2.8","6.9","0.00","0.00"
"04:34:57","40.9","27.2","57.8","30.25","334","2.5","6","0.00","0.00"
"04:39:59","40.7","27.3","58.5","30.25","330","1.7","4.6","0.00","0.00"
"04:44:56","40.5","27.1","58.6","30.26","328","1","3.5","0.00","0.00"
"04:49:58","40.2","26.9","58.7","30.26","328","0.2","1.2","0.00","0.00"
"04:54:58","40","26.8","58.9","30.26","352","0.8","3","0.00","0.00"
"04:59:57","39.8","26.9","59.7","30.26","87","0.4","3.5","0.00","0.00"
"05:04:58","39.6","26.9","60.2","30.26","87","0.2","1.2","0.00","0.00"
"05:09:58","39.4","27.1","60.9","30.26","87","0.2","2","0.00","0.00"
"05:14:56","39.1","27.3","62.4","30.27","87","0.7","2.3","0.00","0.00"
"05:19:56","38.8","26.7","61.4","30.27","303","1.6","4","0.00","0.00"
"05:24:57","38.9","26.9","61.8","30.27","288","1","3","0.00","0.00"
"05:29:58","38.9","26.6","61","30.27","258","1.2","5","0.00","0.00"
"05:34:57","39.1","26.7","60.9","30.27","262","1.8","4.6","0.00","0.00"
"05:39:59","39.1","26.6","60.7","30.27","263","1.2","2.3","0.00","0.00"
"05:44:57","39.2","26.1","59","30.27","235","1.5","4","0.00","0.00"
"05:49:59","39.5","25.9","58.1","30.27","263","3.9","14","0.00","0.00"
"05:54:57","39.9","25.5","56.2","30.27","317","3.8","7","0.00","0.00"
"05:59:59","40.1","25.1","54.7","30.28","322","3.8","10","0.00","0.00"
"06:04:58","40.3","24.9","53.6","30.28","307","4.1","10.4","0.00","0.00"
"06:09:56","40.6","24.6","52.5","30.28","302","4.5","14","0.00","0.00"
"06:14:58","40.8","24.5","52","30.29","292","4.6","13","0.00","0.00"
"06:19:56","40.7","24.5","52.2","30.29","310","6.2","16.1","0.00","0.00"
"06:24:58","40.8","24.2","51.3","30.29","287","6.1","16.1","0.00","0.00"
"06:29:56","40.8","24.2","51.4","30.31","279","4.8","14","0.00","0.00"
"06:34:58","40.8","24.1","51.2","30.31","270","5.8","13.8","0.00","0.00"
"06:39:56","40.7","24.1","51.4","30.31","287","4.7","10.4","0.00","0.00"
"06:44:59","40.5","23.9","51.4","30.31","301","6.2","15","0.00","0.00"
"06:49:56","40.4","23.7","51","30.31","287","4.6","12.7","0.00","0.00"
"06:54:59","40.3","23.2","50.2","30.31","309","8.6","24","0.00","0.00"
"06:59:59","40.3","23.4","50.5","30.33","310","6.7","17.3","0.00","0.00"
"07:04:56","40.3","23.6","51","30.33","301","6.7","16","0.00","0.00"
"07:09:56","40.2","23.8","51.5","30.33","288","6.9","22","0.00","0.00"
"07:14:57","40.2","24.2","52.5","30.34","329","7.3","21.9","0.00","0.00"
"07:19:57","40.1","24.5","53.4","30.34","323","5.5","27","0.00","0.00"
"07:24:58","40","24.7","54","30.34","338","6.5","16.1","0.00","0.00"
"07:29:58","40.2","25","54.3","30.36","282","4.5","12.7","0.00","0.00"
"07:34:58","40.3","25.3","54.8","30.36","289","5.6","16","0.00","0.00"
"07:39:58","40.3","25.5","55.3","30.36","325","5.8","17.3","0.00","0.00"
"07:44:58","40.4","25.7","55.5","30.37","308","3.3","11.5","0.00","0.00"
"07:49:57","40.3","26","56.3","30.37","331","1.8","6","0.00","0.00"
"07:54:58","40.3","26","56.4","30.37","296","4.6","16","0.00","0.00"
"07:59:59","40.1","24.5","53.4","30.39","316","5.7","17.3","0.00","0.00"
"08:04:56","40.1","23.4","51.1","30.39","300","8.8","20","0.00","0.00"
"08:09:57","40.2","22.8","49.6","30.39","297","7.1","19.6","0.00","0.00"
"08:14:57","40.2","22.1","48.1","30.39","286","8.5","18.4","0.00","0.00"
"08:19:58","40.3","22.1","47.9","30.39","311","6.4","16.1","0.00","0.00"
"08:24:58","40.4","21.6","46.8","30.39","310","7.3","16.1","0.00","0.00"
"08:29:59","40.5","21.2","45.8","30.40","324","9.3","20","0.00","0.00"
"08:34:58","40.5","21.1","45.6","30.40","314","6.4","22","0.00","0.00"
"08:39:56","40.6","21.5","46.1","30.40","272","4.6","14","0.00","0.00"
"08:44:56","40.8","21.4","45.7","30.42","282","5.2","14","0.00","0.00"
"08:49:57","40.9","21.6","45.9","30.42","283","4.8","12","0.00","0.00"
"08:54:57","41","21.6","45.6","30.42","279","5","15","0.00","0.00"
"08:59:59","41.1","21.3","44.9","30.42","286","6.4","17.3","0.00","0.00"
"09:04:57","41.2","21.4","45","30.42","304","6.2","14","0.00","0.00"
"09:09:58","41.2","21.3","44.7","30.42","303","6","18.4","0.00","0.00"
"09:14:56","41.4","21.6","45.1","30.42","319","5.3","11.5","0.00","0.00"
"09:19:56","41.6","21.6","44.7","30.42","288","4.9","13","0.00","0.00"
"09:24:56","41.6","21.6","44.6","30.42","300","5.3","11.5","0.00","0.00"
"09:29:56","41.8","21.8","44.6","30.43","342","7.2","19.6","0.00","0.00"
"09:34:57","41.9","21.7","44.3","30.43","314","6.2","14","0.00","0.00"
"09:39:56","42","21.9","44.5","30.43","316","6.5","14","0.00","0.00"
"09:44:57","42.4","22.8","45.5","30.44","289","4.8","14","0.00","0.00"
"09:49:56","42.3","21.8","43.8","30.44","309","6.7","17","0.00","0.00"
"09:54:56","42.3","22.1","44.3","30.44","297","6","11.5","0.00","0.00"
"09:59:57","42.5","22.5","44.8","30.45","274","6.1","14","0.00","0.00"
"10:04:56","42.6","22.1","43.9","30.45","291","7.1","16.1","0.00","0.00"
"10:09:56","42.8","23.1","45.5","30.45","292","4.9","10.4","0.00","0.00"
"10:14:56","42.9","22","43.2","30.45","309","8.1","14","0.00","0.00"
"10:19:58","42.7","22.3","43.9","30.45","330","8.8","19.6","0.00","0.00"
"10:24:58","42.9","22.8","44.7","30.45","291","7.8","16.1","0.00","0.00"
"10:29:58","43","22.9","44.8","30.45","314","8.3","16","0.00","0.00"
"10:34:57","43","22.3","43.7","30.44","298","8.1","16.1","0.00","0.00"
"10:39:56","43.1","23.3","45.2","30.44","311","8","19.6","0.00","0.00"
"10:44:57","43.4","23.6","45.2","30.45","295","4.5","11.5","0.00","0.00"
"10:49:56","43.7","23.8","45.2","30.45","286","5.4","13","0.00","0.00"
"10:54:58","43.9","23.6","44.3","30.45","299","4.4","12.7","0.00","0.00"
"10:59:59","44.1","24.2","45.3","30.45","290","5.9","13","0.00","0.00"
"11:04:56","44.4","24.3","44.9","30.45","299","4.1","12.7","0.00","0.00"
"11:09:55","44.8","24.1","44","30.45","336","5.8","14","0.00","0.00"
"11:14:56","44.9","24.1","43.6","30.45","324","5.5","13","0.00","0.00"
"11:19:56","44.9","24.1","43.7","30.45","337","6","13","0.00","0.00"
"11:24:56","45.2","25.4","45.6","30.45","330","4.7","13","0.00","0.00"
"11:29:59","45.6","25","44","30.45","297","5.4","13","0.00","0.00"
"11:34:58","45.6","25","44","30.45","314","5.7","12","0.00","0.00"
"11:39:58","45.7","24.4","43","30.45","287","7.4","24.2","0.00","0.00"
"11:44:56","45.1","24.3","43.8","30.45","316","7.1","17.3","0.00","0.00"
"11:49:59","44.9","24.5","44.4","30.45","319","5.5","16","0.00","0.00"
"11:54:59","45.4","25.5","45.5","30.45","288","4.8","11.5","0.00","0.00"
"11:59:57","45.7","25.4","44.9","30.45","269","4.4","14","0.00","0.00"
"12:04:57","45.5","24.3","43.1","30.45","302","5.4","14","0.00","0.00"
"12:09:57","45","24.5","44.3","30.45","299","4.2","11.5","0.00","0.00"
"12:14:58","45.1","25","45","30.45","272","3.6","7","0.00","0.00"
"12:19:57","45.7","25.9","45.7","30.45","272","4.7","12","0.00","0.00"
"12:24:58","45.6","24.8","43.8","30.45","318","7.6","16.1","0.00","0.00"
"12:29:58","45.2","24.7","44.2","30.45","270","3.4","10.4","0.00","0.00"
"12:34:57","45.3","25.7","46.1","30.45","297","3.7","9.2","0.00","0.00"
"12:39:58","45.9","25.3","44.2","30.45","304","5.8","14","0.00","0.00"
"12:44:57","45.7","24.5","43","30.45","332","5.6","13.8","0.00","0.00"
"12:49:59","45.8","25.4","44.6","30.45","279","5.1","12.7","0.00","0.00"
"12:54:58","46.1","25.3","44.1","30.45","323","5.3","12","0.00","0.00"
"12:59:55","46.5","25.9","44.5","30.45","336","5.4","14","0.00","0.00"
"13:04:56","47","26.4","44.4","30.44","334","5.6","16","0.00","0.00"
"13:09:56","47.3","25.4","42.1","30.44","340","8.5","22","0.00","0.00"
"13:14:57","46.9","24.9","41.9","30.45","320","7.1","16.1","0.00","0.00"
"13:19:58","46.5","24.7","42.1","30.45","329","7.3","18.4","0.00","0.00"
"13:24:58","46.4","25.4","43.6","30.45","279","4.1","11.5","0.00","0.00"
"13:29:57","46.7","26.5","45.1","30.45","288","3.4","9.2","0.00","0.00"
"13:34:56","47.3","25.8","42.8","30.45","278","4.9","9.2","0.00","0.00"
"13:39:56","47","25.7","43.1","30.45","317","4.2","9.2","0.00","0.00"
"13:44:56","47.3","26.1","43.3","30.45","311","3.9","11","0.00","0.00"
"13:49:56","47","24.9","41.7","30.45","305","5.1","12","0.00","0.00"
"13:54:57","46.6","24.8","42.3","30.45","319","4.8","14","0.00","0.00"
"13:59:57","46.6","25.4","43.1","30.45","320","5","11","0.00","0.00"
"14:04:57","47","25.3","42.5","30.45","314","4","10.4","0.00","0.00"
"14:09:57","47.1","25.3","42.2","30.45","299","4.6","12","0.00","0.00"
"14:14:58","47.1","25.6","42.8","30.45","282","3.9","10.4","0.00","0.00"
"14:19:57","47.3","25.5","42.3","30.45","309","4.6","11.5","0.00","0.00"
"14:24:59","47.5","25.9","42.6","30.45","351","5.1","14","0.00","0.00"
"14:29:59","47.6","26.1","42.9","30.45","265","4","12.7","0.00","0.00"
"14:34:59","47.7","26.3","43.2","30.45","281","3.7","9","0.00","0.00"
"14:39:58","47.5","25.2","41.5","30.45","322","5","12","0.00","0.00"
"14:44:56","47.3","25.4","42.1","30.46","269","5.3","13","0.00","0.00"
"14:49:56","46.8","24.6","41.5","30.46","287","4.2","11.5","0.00","0.00"
"14:54:57","46.7","25.4","43","30.46","340","5.1","11.5","0.00","0.00"
"14:59:59","46.8","25.1","42.3","30.46","338","5.9","12","0.00","0.00"
"15:04:56","46.6","24.8","42.1","30.46","325","6","13","0.00","0.00"
"15:09:56","46.3","24.2","41.7","30.46","331","7","16.1","0.00","0.00"
"15:14:57","46.2","24.6","42.5","30.47","311","3.8","11.5","0.00","0.00"
"15:19:58","46.3","24.7","42.6","30.47","283","4.1","12","0.00","0.00"
"15:24:59","46.1","24.7","42.9","30.47","308","3.3","7","0.00","0.00"
"15:29:58","46.3","26","44.8","30.47","326","4.7","15","0.00","0.00"
"15:34:58","46.4","25.6","44","30.47","312","3.7","10.4","0.00","0.00"
"15:39:58","46.2","25","43.3","30.47","321","5.1","11.5","0.00","0.00"
"15:44:58","45.7","25.3","44.6","30.48","328","4.7","13","0.00","0.00"
"15:49:59","45.4","25.4","45.2","30.48","323","3.4","7","0.00","0.00"
"15:54:59","45.1","25.3","45.5","30.48","327","4.4","8.1","0.00","0.00"
"15:59:59","44.7","25.1","45.8","30.48","341","5.8","12","0.00","0.00"
"16:04:59","44.4","24.8","45.7","30.48","329","5","11.5","0.00","0.00"
"16:09:59","44.2","25.3","47.3","30.48","286","2.4","7","0.00","0.00"
"16:14:59","44","24.6","46.3","30.49","318","4.4","12","0.00","0.00"
"16:19:57","43.7","24.7","46.7","30.49","326","4","11.5","0.00","0.00"
"16:24:56","43.4","24.6","47.2","30.49","338","6.5","13","0.00","0.00"
"16:29:57","43.2","24.6","47.7","30.49","340","4.7","12","0.00","0.00"
"16:34:59","42.8","24.5","48.1","30.49","332","5.1","13","0.00","0.00"
"16:39:58","42.6","24.6","48.6","30.49","304","2.1","6.9","0.00","0.00"
"16:44:58","42.3","24.5","49","30.50","320","1.6","7","0.00","0.00"
"16:49:58","41.9","24.6","49.9","30.50","337","3.4","10","0.00","0.00"
"16:54:59","41.5","24.1","49.7","30.50","336","6.2","15","0.00","0.00"
"16:59:59","41.3","24.1","50.2","30.50","336","4.7","12","0.00","0.00"
"17:04:56","41","24.1","50.8","30.50","348","4.4","13","0.00","0.00"
"17:09:57","40.7","24","51.1","30.50","326","2.7","12.7","0.00","0.00"
"17:14:56","40.4","24.1","51.8","30.50","2","2.7","9.2","0.00","0.00"
"17:19:57","40.2","24","52.2","30.50","337","2.4","5","0.00","0.00"
"17:24:58","39.9","24","52.7","30.50","322","2.8","9.2","0.00","0.00"
"17:29:59","39.7","24","53","30.51","340","1.9","5","0.00","0.00"
"17:34:56","39.5","23.8","53","30.51","319","1.2","5","0.00","0.00"
"17:39:58","39.2","23.9","54","30.51","307","0.7","3.5","0.00","0.00"
"17:44:56","39","23.7","54","30.52","334","0.9","4","0.00","0.00"
"17:49:57","38.8","24","54.8","30.52","332","1.9","6","0.00","0.00"
"17:54:59","38.7","23.9","55","30.52","342","2.6","6","0.00","0.00"
"17:59:56","38.5","24.1","55.9","30.52","337","2.8","6","0.00","0.00"
"18:04:56","38.2","24.1","56.5","30.52","338","2.7","6","0.00","0.00"
"18:09:57","38.1","24.2","57","30.52","339","3.7","10","0.00","0.00"
"18:14:58","37.9","24.1","57.1","30.52","337","4.8","10.4","0.00","0.00"
"18:19:58","37.9","24.1","57.2","30.52","343","4.4","10.4","0.00","0.00"
"18:24:58","37.9","24.1","57.2","30.52","333","3.3","9.2","0.00","0.00"
"18:29:57","37.8","24","57.2","30.52","353","2.8","9.2","0.00","0.00"
"18:34:57","37.6","23.9","57.4","30.52","339","2.3","8.1","0.00","0.00"
"18:39:58","37.5","24.1","58","30.52","327","3.6","9.2","0.00","0.00"
"18:44:56","37.4","24","58.2","30.52","338","4.1","11","0.00","0.00"
"18:49:56","37.3","24","58.2","30.52","336","4.5","12","0.00","0.00"
"18:54:57","37.4","24.1","58.2","30.52","322","3.5","11.5","0.00","0.00"
"18:59:57","37.3","23.9","58","30.52","334","2.1","7","0.00","0.00"
"19:04:59","37.2","24.1","58.7","30.52","349","2.2","8","0.00","0.00"
"19:09:56","37.1","24.1","59","30.52","343","2.8","8.1","0.00","0.00"
"19:14:59","36.9","24.3","60","30.52","334","2.3","9","0.00","0.00"
"19:19:59","36.7","24.1","60","30.52","321","1","4.6","0.00","0.00"
"19:24:56","36.6","24","60","30.52","334","0.4","2.3","0.00","0.00"
"19:29:56","36.4","24","60.6","30.53","336","0.6","5","0.00","0.00"
"19:34:56","36.2","24","61","30.53","339","2.2","6","0.00","0.00"
"19:39:59","35.9","24.1","61.9","30.53","339","0.8","3.5","0.00","0.00"
"19:44:56","35.7","23.9","62","30.53","341","0.6","2.3","0.00","0.00"
"19:49:57","35.5","24","62.5","30.53","334","0.8","2.3","0.00","0.00"
"19:54:58","35.3","24.2","63.7","30.53","333","0.9","4","0.00","0.00"
"19:59:57","35.1","24","63.5","30.54","335","0.1","2.3","0.00","0.00"
"20:04:58","35.1","24.1","64","30.54","333","1.5","3.5","0.00","0.00"
"20:09:59","35","24.3","64.7","30.54","333","1.5","4","0.00","0.00"
"20:14:58","34.9","24.2","64.8","30.54","333","1.5","3.5","0.00","0.00"
"20:19:59","34.9","24.3","65","30.54","325","1.2","3.5","0.00","0.00"
"20:24:56","34.8","24.2","65","30.54","325","1.4","3.5","0.00","0.00"
"20:29:56","34.6","24.2","65.3","30.54","328","2","4","0.00","0.00"
"20:34:57","34.5","24.1","65.4","30.54","330","0.6","3.5","0.00","0.00"
"20:39:59","34.4","23.8","65","30.54","331","0.1","1.2","0.00","0.00"
"20:44:59","34.4","23.8","65","30.55","331","0.1","1.2","0.00","0.00"
"20:49:57","34.2","24","66.1","30.55","331","0","0","0.00","0.00"
"20:54:57","33.9","23.7","66","30.55","331","0.2","1.2","0.00","0.00"
"20:59:56","33.7","24.1","67.3","30.55","331","0.5","2.3","0.00","0.00"
"21:04:56","33.5","24","67.8","30.55","331","1.1","2.3","0.00","0.00"
"21:09:57","33.2","23.8","68","30.55","331","0","1.2","0.00","0.00"
"21:14:59","33","23.8","68.6","30.55","331","0","2","0.00","0.00"
"21:19:56","32.7","23.9","69.8","30.55","331","1.1","2.3","0.00","0.00"
"21:24:56","32.4","23.7","70","30.55","331","0.3","1.2","0.00","0.00"
"21:29:57","32.3","23.8","70.7","30.56","331","0.1","1.2","0.00","0.00"
"21:34:59","31.9","24.2","72.8","30.56","331","0","0","0.00","0.00"
"21:39:58","31.5","24","73.5","30.56","331","0.2","1.2","0.00","0.00"
"21:44:56","31.2","23.9","74","30.56","331","0.4","1.2","0.00","0.00"
"21:49:57","30.9","23.7","74.4","30.56","331","0","1","0.00","0.00"
"21:54:58","30.6","23.7","75.5","30.56","331","0.8","2.3","0.00","0.00"
"21:59:59","30.4","23.7","76","30.57","331","0","1.2","0.00","0.00"
"22:04:57","30.2","23.5","76","30.57","331","0.2","1.2","0.00","0.00"
"22:09:57","30","23.6","76.8","30.57","331","0","1.2","0.00","0.00"
"22:14:57","29.8","23.5","77","30.57","331","0.3","1.2","0.00","0.00"
"22:19:58","29.6","23.5","77.6","30.56","331","0.3","1.2","0.00","0.00"
"22:24:56","29.4","23.4","78.1","30.56","331","0","0","0.00","0.00"
"22:29:58","29.3","23.6","79","30.56","331","0.4","2.3","0.00","0.00"
"22:34:59","29.3","23.6","79","30.56","331","0.5","2.3","0.00","0.00"
"22:39:58","29.2","23.6","79.4","30.56","331","0.3","1.2","0.00","0.00"
"22:44:58","29.1","23.7","80","30.56","331","0","0","0.00","0.00"
"22:49:57","29","23.6","80","30.56","331","0","0","0.00","0.00"
"22:54:58","28.9","23.6","80.3","30.56","331","0","1.2","0.00","0.00"
"22:59:59","28.9","23.5","80.1","30.56","331","0","0","0.00","0.00"
"23:04:56","28.9","23.8","81.2","30.56","331","0","0","0.00","0.00"
"23:09:57","28.9","24.1","82","30.56","331","0","0","0.00","0.00"
"23:14:56","28.9","24.1","82","30.56","331","0.4","2.3","0.00","0.00"
"23:19:57","28.8","24.1","82.3","30.56","331","0.1","1.2","0.00","0.00"
"23:24:59","28.7","24.2","83","30.56","331","0.3","2.3","0.00","0.00"
"23:29:57","28.7","24.2","83","30.56","331","0.7","2.3","0.00","0.00"
"23:34:59","28.5","24","83","30.56","331","0.3","1.2","0.00","0.00"
"23:39:58","28.4","23.9","83","30.56","331","0.2","1.2","0.00","0.00"
"23:44:56","28.2","23.8","83.3","30.57","331","0","0","0.00","0.00"
"23:49:57","28","23.6","83.1","30.57","331","0.1","2","0.00","0.00"
"23:54:56","28","23.8","84","30.57","331","1","2.3","0.00","0.00"
"23:59:58","28.1","23.9","84","30.57","331","0","1.2","0.00","0.00"
